1499904000.27,27718,19.44,73670.5,4.77,4.05,4.07,0,*70
1499904001.47,27719,19.44,73668.5,4.73,4.01,4.07,0,*71
1499904002.69,27720,19.44,73672.0,4.73,4.01,4.05,0,*79
1499904003.89,27721,19.44,73672.3,4.73,4.01,4.07,0,*7A
1499904005.15,27722,19.44,73676.3,4.75,4.01,4.05,0,*7D
1499904006.4,27723,19.38,73672.3,4.75,4.01,4.05,0,*7C
1499904007.63,27724,19.44,73674.0,4.75,3.93,4.05,0,*77
1499904008.84,27725,19.38,73674.0,4.77,4.05,4.07,0,*7E
1499904010.09,27726,19.44,73674.3,4.75,4.01,4.05,0,*79
1499904011.33,27727,19.44,73674.3,4.75,3.93,4.05,0,*74
1499904012.58,27728,19.44,73676.5,4.75,4.01,4.05,0,*77
1499904013.83,27729,19.44,73672.5,4.75,4.01,4.01,0,*72
1499904015.07,27730,19.44,73672.8,4.75,4.01,4.01,0,*7A
1499904016.31,27731,19.44,73674.3,4.75,4.05,4.07,0,*79
1499904017.57,27732,19.44,73674.3,4.75,4.05,4.05,0,*78
1499904018.8,27733,19.44,73672.3,4.75,4.05,4.15,0,*78
1499904020.03,27734,19.44,73674.8,4.75,4.05,4.07,0,*7C
1499904021.22,27735,19.44,73672.3,4.77,4.07,4.07,0,*7D
1499904022.48,27736,19.38,73672.0,4.75,4.05,4.05,0,*7C
1499904023.71,27737,19.44,73674.0,4.75,3.81,4.05,0,*76
1499904024.94,27738,19.44,73674.8,4.75,3.89,4.05,0,*71
1499904026.17,27739,19.44,73674.3,4.75,3.89,4.01,0,*74
1499904027.42,27740,19.44,73670.0,4.75,4.01,4.05,0,*79
1499904028.67,27741,19.44,73672.0,4.75,4.01,4.05,0,*78
1499904029.91,27742,19.44,73670.3,4.75,3.93,4.05,0,*77
1499904031.11,27743,19.44,73668.8,4.77,3.97,4.07,0,*72
1499904032.34,27744,19.44,73670.3,4.75,3.93,4.05,0,*71
1499904033.57,27745,19.44,73668.3,4.77,3.97,4.05,0,*76
1499904034.8,27746,19.44,73666.8,4.75,3.89,4.01,0,*7C
1499904036.01,27747,19.44,73668.5,4.77,3.93,4.05,0,*70
1499904037.27,27748,19.44,73670.3,4.75,4.05,4.05,0,*75
1499904038.5,27749,19.44,73670.8,4.75,4.05,4.07,0,*76
1499904039.74,27750,19.44,73670.8,4.75,4.05,4.07,0,*7E
1499904040.99,27751,19.44,73670.5,4.75,4.01,4.05,0,*79
1499904042.24,27752,19.44,73670.8,4.75,4.01,4.05,0,*7A
1499904043.48,27753,19.44,73670.0,4.77,4.05,4.05,0,*7D
1499904044.71,27754,19.44,73670.0,4.75,4.05,4.07,0,*7A
1499904045.95,27755,19.44,73670.5,4.75,4.05,4.07,0,*7B
1499904047.15,27756,19.44,73672.0,4.75,4.07,4.15,0,*79
1499904048.38,27757,19.44,73672.0,4.75,4.05,4.15,0,*7A
1499904049.59,27758,19.44,73668.8,4.75,4.07,4.15,0,*77
1499904050.82,27759,19.44,73670.3,4.75,4.05,4.07,0,*77
1499904052.05,27760,19.44,73672.3,4.75,4.05,4.15,0,*7E
1499904053.26,27761,19.44,73674.3,4.77,4.05,4.19,0,*71
1499904054.49,27762,19.44,73672.3,4.75,4.05,4.07,0,*7F
1499904055.67,27763,19.44,73676.3,4.77,4.11,4.19,0,*76
1499904056.85,27764,19.44,73672.5,4.77,4.11,4.19,0,*71
1499904058.05,27765,19.44,73674.8,4.75,4.07,4.19,0,*75
1499904059.23,27766,19.38,73672.3,4.77,4.11,4.23,0,*7A
1499904060.41,27767,19.38,73674.5,4.77,4.07,4.19,0,*75
1499904061.61,27768,19.44,73676.5,4.75,4.07,4.19,0,*78
1499904062.84,27769,19.44,73678.3,4.75,4.05,4.15,0,*77
1499904064.05,27770,19.38,73676.5,4.75,4.07,4.07,0,*7E
1499904065.28,27771,19.44,73680.0,4.75,4.05,4.15,0,*7E
1499904066.46,27772,19.44,73680.8,4.77,4.11,4.19,0,*76
1499904067.67,27773,19.44,73682.8,4.75,4.07,4.07,0,*7D
1499904068.87,27774,19.44,73682.3,4.79,4.15,4.23,0,*73
1499904070.07,27775,19.44,73682.5,4.79,4.11,4.27,0,*72
1499904071.28,27776,19.44,73682.3,4.79,4.11,4.23,0,*75
1499904072.46,27777,19.44,73686.0,4.77,4.07,4.19,0,*74
1499904073.66,27778,19.44,73686.0,4.79,4.11,4.23,0,*7B
1499904074.86,27779,19.44,73686.5,4.79,4.15,4.11,0,*7F
1499904076.04,27780,19.38,73680.8,4.77,4.11,4.19,0,*7B
1499904077.25,27781,19.44,73684.3,4.79,4.15,4.23,0,*79
1499904078.45,27782,19.44,73684.0,4.79,4.11,4.23,0,*7E
1499904079.63,27783,19.38,73680.3,4.77,4.07,4.11,0,*77
1499904080.81,27784,19.44,73684.0,4.77,4.07,4.11,0,*70
1499904082.01,27785,19.44,73686.3,4.79,4.11,4.11,0,*78
1499904083.22,27786,19.44,73684.8,4.77,4.05,4.07,0,*77
1499904084.41,27787,19.38,73682.8,4.77,4.07,4.23,0,*72
1499904085.59,27788,19.44,73680.3,4.77,4.07,4.07,0,*7B
1499904086.77,27789,19.44,73684.3,4.77,4.07,4.11,0,*7D
1499904087.95,27790,19.44,73684.0,4.77,4.11,4.19,0,*7A
1499904089.13,27791,19.44,73686.0,4.77,4.07,4.19,0,*7C
1499904090.31,27792,19.38,73678.0,4.77,4.07,4.11,0,*77
1499904091.51,27793,19.44,73680.3,4.79,4.07,4.11,0,*78
1499904092.71,27794,19.44,73680.0,4.79,4.07,4.15,0,*7B
1499904093.92,27795,19.44,73678.8,4.79,4.07,4.11,0,*7E
1499904095.14,27796,19.44,73682.8,4.79,4.01,4.11,0,*7B
1499904096.35,27797,19.44,73682.3,4.79,4.07,4.15,0,*78
1499904097.55,27798,19.44,73682.5,4.79,4.07,4.27,0,*76
1499904098.73,27799,19.44,73682.0,4.81,4.07,4.23,0,*74
1499904099.93,27800,19.38,73678.3,4.79,4.07,4.15,0,*79
1499904101.14,27801,19.44,73682.5,4.79,4.07,4.15,0,*78
1499904102.34,27802,19.38,73676.0,4.79,4.07,4.15,0,*7B
1499904103.57,27803,19.38,73676.3,4.79,4.01,4.15,0,*7C
1499904104.78,27804,19.44,73678.3,4.79,4.07,4.15,0,*7D
1499904106.0,27805,19.44,73680.0,4.79,4.01,4.23,0,*7F
1499904107.2,27806,19.44,73678.0,4.81,4.01,4.15,0,*7E
1499904108.42,27807,19.44,73678.3,4.79,4.01,4.15,0,*78
1499904109.63,27808,19.44,73680.3,4.79,4.07,4.23,0,*74
1499904110.83,27809,19.38,73672.5,4.79,4.07,4.27,0,*71
1499904112.04,27810,19.44,73674.8,4.79,4.07,4.23,0,*7D
1499904113.22,27811,19.44,73672.3,4.81,4.07,4.23,0,*7B
1499904114.42,27812,19.44,73674.8,4.79,4.07,4.15,0,*7A
1499904115.64,27813,19.44,73674.3,4.79,4.01,4.11,0,*79
1499904116.85,27814,19.44,73672.8,4.79,4.07,4.15,0,*7C
1499904118.06,27815,19.44,73674.5,4.79,4.07,4.15,0,*7D
1499904119.26,27816,19.44,73674.3,4.79,4.07,4.15,0,*7E
1499904120.47,27817,19.44,73672.3,4.79,4.07,4.15,0,*7F
1499904121.67,27818,19.44,73672.5,4.79,4.15,4.23,0,*76
1499904122.87,27819,19.38,73672.8,4.79,4.11,4.27,0,*77
1499904124.05,27820,19.44,73674.5,4.81,4.11,4.23,0,*7E
1499904125.26,27821,19.44,73674.8,4.79,4.11,4.23,0,*78
1499904126.44,27822,19.44,73672.0,4.81,4.11,4.23,0,*7C
1499904127.64,27823,19.44,73672.8,4.79,4.11,4.15,0,*7F
1499904128.82,27824,19.44,73674.0,4.81,4.11,4.27,0,*7E
1499904130.02,27825,19.44,73672.8,4.79,4.11,4.23,0,*7C
1499904131.23,27826,19.44,73674.8,4.79,4.11,4.23,0,*7F
1499904132.43,27827,19.44,73674.3,4.79,4.11,4.23,0,*7E
1499904133.61,27828,19.44,73672.8,4.81,4.11,4.15,0,*73
1499904134.79,27829,19.38,73672.0,4.81,4.11,4.23,0,*77
1499904135.99,27830,19.44,73672.8,4.79,4.15,4.27,0,*78
1499904137.19,27831,19.44,73674.0,4.79,4.11,4.23,0,*79
1499904138.37,27832,19.44,73672.3,4.81,4.15,4.27,0,*7D
1499904139.57,27833,19.38,73674.0,4.79,4.11,4.27,0,*7F
1499904140.78,27834,19.44,73672.0,4.79,4.11,4.23,0,*7C
1499904141.98,27835,19.44,73674.5,4.79,4.23,4.23,0,*7C
1499904143.16,27836,19.38,73672.0,4.81,4.11,4.15,0,*7C
1499904144.36,27837,19.38,73672.0,4.79,4.11,4.27,0,*7B
1499904145.54,27838,19.38,73670.3,4.81,4.11,4.23,0,*77
1499904146.71,27839,19.44,73672.3,4.81,4.11,4.15,0,*73
1499904147.89,27840,19.38,73672.0,4.81,4.11,4.11,0,*79
1499904149.1,27841,19.38,73672.8,4.79,4.11,4.15,0,*7B
1499904150.27,27842,19.44,73676.8,4.81,4.07,4.11,0,*7C
1499904151.47,27843,19.38,73674.0,4.79,4.11,4.11,0,*7D
1499904152.65,27844,19.44,73678.0,4.81,4.11,4.15,0,*79
1499904153.83,27845,19.38,73674.5,4.81,4.11,4.11,0,*7C
1499904155.0,27846,19.38,73674.0,4.81,4.07,4.11,0,*78
1499904156.23,27847,19.38,73678.8,4.79,3.89,3.97,0,*76
1499904157.43,27848,19.44,73678.8,4.81,3.85,3.97,0,*72
1499904158.64,27849,19.38,73674.0,4.81,3.89,3.97,0,*7F
1499904159.87,27850,19.44,73678.8,4.79,3.89,4.01,0,*78
1499904161.09,27851,19.38,73676.3,4.79,3.97,4.07,0,*70
1499904162.3,27852,19.44,73676.5,4.81,3.97,4.07,0,*74
1499904163.5,27853,19.44,73676.3,4.81,3.97,4.07,0,*75
1499904164.75,27854,19.38,73672.3,4.79,3.97,4.01,0,*73
1499904166.0,27855,19.44,73676.3,4.79,3.97,4.01,0,*72
1499904167.23,27856,19.44,73670.3,4.79,3.89,4.01,0,*7E
1499904168.44,27857,19.38,73664.3,4.79,3.89,3.89,0,*78
1499904169.67,27858,19.38,73666.5,4.79,3.89,3.97,0,*78
1499904170.89,27859,19.38,73666.0,4.79,3.97,4.07,0,*78
1499904172.13,27860,19.38,73666.5,4.77,4.05,4.05,0,*72
1499904173.37,27861,19.44,73666.5,4.77,4.05,4.05,0,*73
1499904174.59,27862,19.44,73670.8,4.77,3.97,4.05,0,*7C
1499904175.8,27863,19.38,73666.8,4.79,4.07,4.11,0,*78
1499904177.02,27864,19.38,73668.3,4.79,4.01,4.11,0,*79
1499904178.23,27865,19.44,73670.3,4.79,4.07,4.07,0,*79
1499904179.46,27866,19.38,73666.0,4.79,4.01,4.07,0,*7C
1499904180.66,27867,19.38,73664.8,4.79,4.07,4.15,0,*78
1499904181.87,27868,19.44,73664.3,4.79,4.07,4.11,0,*73
1499904183.08,27869,19.38,73666.8,4.77,4.05,4.07,0,*79
1499904184.29,27870,19.38,73666.3,4.77,4.05,4.07,0,*71
1499904185.49,27871,19.44,73670.5,4.77,3.97,4.07,0,*7C
1499904186.72,27872,19.44,73670.0,4.79,3.97,4.11,0,*76
1499904187.89,27873,19.38,73666.3,4.81,4.07,4.11,0,*7E
1499904189.12,27874,19.44,73670.5,4.77,3.97,4.05,0,*7B
1499904190.33,27875,19.38,73670.8,4.79,4.07,4.11,0,*7F
1499904191.55,27876,19.38,73674.0,4.79,4.01,4.11,0,*7A
1499904192.73,27877,19.38,73672.8,4.77,3.93,4.07,0,*7E
1499904193.91,27878,19.38,73670.0,4.77,3.81,3.93,0,*78
1499904195.12,27879,19.44,73672.5,4.77,3.85,4.05,0,*75
1499904196.37,27880,19.38,73664.0,4.75,4.01,4.01,0,*7E
1499904197.57,27881,19.38,73662.5,4.77,4.05,4.11,0,*78
1499904198.79,27882,19.38,73666.5,4.77,4.05,4.07,0,*7C
1499904200.02,27883,19.38,73666.5,4.75,3.93,4.05,0,*75
1499904201.22,27884,19.44,73666.8,4.77,3.97,4.07,0,*76
1499904202.43,27885,19.38,73668.5,4.77,3.97,4.07,0,*77
1499904203.66,27886,19.44,73672.3,4.77,3.97,4.05,0,*76
1499904204.87,27887,19.38,73670.0,4.77,3.93,4.05,0,*73
1499904206.07,27888,19.44,73670.8,4.77,3.93,4.05,0,*7C
1499904207.28,27889,19.44,73674.0,4.77,3.93,3.97,0,*71
1499904208.49,27890,19.38,73672.0,4.77,3.93,3.97,0,*79
1499904209.69,27891,19.38,73672.3,4.77,3.85,3.97,0,*7F
1499904210.89,27892,19.38,73674.5,4.77,3.85,3.97,0,*7C
1499904212.09,27893,19.38,73674.0,4.77,3.93,3.97,0,*7A
1499904213.3,27894,19.44,73672.5,4.77,3.85,3.97,0,*7A
1499904214.48,27895,19.38,73672.0,4.77,3.93,3.93,0,*78
1499904215.72,27896,19.44,73668.3,4.75,3.79,3.89,0,*76
1499904216.9,27897,19.38,73664.5,4.77,3.81,3.89,0,*72
1499904218.08,27898,19.38,73664.3,4.77,3.81,3.85,0,*71
1499904219.31,27899,19.38,73668.5,4.77,3.71,3.71,0,*74
1499904220.54,27900,19.44,73672.8,4.75,3.71,3.81,0,*78
1499904221.8,27901,19.38,73674.0,4.75,3.71,3.71,0,*76
1499904223.05,27902,19.44,73674.3,4.75,3.79,3.79,0,*75
1499904224.3,27903,19.38,73672.3,4.75,3.71,3.79,0,*7C
1499904225.54,27904,19.38,73670.8,4.75,3.79,3.81,0,*74
1499904226.77,27905,19.38,73672.8,4.75,3.79,3.89,0,*7D
1499904227.95,27906,19.44,73676.0,4.73,3.81,3.81,0,*77
1499904229.16,27907,19.38,73672.8,4.73,3.79,3.89,0,*79
1499904230.39,27908,19.38,73674.3,4.75,3.71,3.81,0,*70
1499904231.6,27909,19.38,73674.8,4.75,3.81,3.93,0,*7D
1499904232.82,27910,19.44,73676.8,4.75,3.93,4.01,0,*7A
1499904234.03,27911,19.38,73676.5,4.75,3.89,3.93,0,*7C
1499904235.26,27912,19.38,73670.5,4.75,3.93,4.01,0,*78
1499904236.44,27913,19.38,73668.8,4.73,3.93,3.93,0,*73
1499904237.62,27914,19.38,73666.5,4.73,3.81,3.89,0,*7C
1499904238.8,27915,19.38,73666.3,4.73,3.81,3.93,0,*76
1499904239.99,27916,19.44,73664.8,4.73,3.89,3.93,0,*7D
1499904241.17,27917,19.38,73662.0,4.73,3.89,3.93,0,*7C
1499904242.37,27918,19.44,73660.0,4.73,3.93,4.01,0,*74
1499904243.59,27919,19.38,73660.8,4.73,4.01,4.01,0,*79
1499904244.82,27920,19.38,73658.0,4.75,3.93,4.05,0,*7D
1499904246.03,27921,19.38,73656.0,4.73,3.79,3.93,0,*76
1499904247.21,27922,19.44,73658.5,4.73,3.59,3.81,0,*74
1499904248.39,27923,19.38,73654.0,4.73,3.59,3.89,0,*7D
1499904249.6,27924,19.38,73652.5,4.73,3.67,3.81,0,*7F
1499904250.8,27925,19.38,73654.5,4.73,3.71,3.93,0,*7A
1499904252.01,27926,19.38,73656.5,4.73,3.67,3.81,0,*7D
1499904253.22,27927,19.38,73656.3,4.73,3.71,3.89,0,*73
1499904254.42,27928,19.38,73656.3,4.73,3.71,3.89,0,*7C
1499904255.63,27929,19.38,73658.3,4.73,3.71,3.89,0,*7D
1499904256.82,27930,19.44,73656.0,4.73,3.55,3.79,0,*7C
1499904258.03,27931,19.38,73652.8,4.73,3.45,3.81,0,*7B
1499904259.2,27932,19.38,73656.8,4.73,3.55,3.93,0,*7A
1499904260.38,27933,19.38,73656.3,4.73,3.55,3.93,0,*7B
1499904261.61,27934,19.38,73656.3,4.73,3.71,4.05,0,*72
1499904262.84,27935,19.38,73660.0,4.73,3.79,4.05,0,*7B
1499904264.06,27936,19.38,73660.8,4.73,3.79,4.01,0,*7C
1499904265.29,27937,19.44,73662.3,4.73,3.79,4.01,0,*7D
1499904266.49,27938,19.44,73660.8,4.73,3.81,4.01,0,*75
1499904267.69,27939,19.38,73660.0,4.73,3.89,4.01,0,*7C
1499904268.89,27940,19.38,73662.5,4.73,3.89,4.01,0,*72
1499904270.12,27941,19.44,73666.0,4.73,4.01,4.05,0,*70
1499904271.34,27942,19.38,73664.8,4.73,4.01,4.05,0,*73
1499904272.57,27943,19.38,73660.8,4.73,4.01,4.05,0,*72
1499904273.79,27944,19.38,73666.3,4.73,4.01,4.05,0,*75
1499904275.02,27945,19.38,73668.8,4.75,4.01,4.07,0,*70
1499904276.22,27946,19.38,73668.8,4.73,4.01,4.07,0,*75
1499904277.41,27947,19.38,73664.3,4.73,3.89,3.93,0,*79
1499904278.63,27948,19.38,73666.8,4.73,4.01,4.01,0,*7D
1499904279.83,27949,19.38,73666.0,4.73,3.89,4.05,0,*7F
1499904281.03,27950,19.38,73668.3,4.73,3.81,4.01,0,*7B
1499904282.26,27951,19.38,73664.8,4.75,3.93,4.01,0,*7F
1499904283.46,27952,19.38,73668.5,4.73,3.93,4.01,0,*7A
1499904284.69,27953,19.38,73670.8,4.75,3.93,4.05,0,*79
1499904285.93,27954,19.38,73670.3,4.75,3.93,4.05,0,*7E
1499904287.16,27955,19.38,73668.8,4.75,3.89,4.05,0,*74
1499904288.38,27956,19.38,73668.8,4.75,3.81,4.01,0,*7B
1499904289.59,27957,19.38,73670.5,4.75,3.93,4.07,0,*7F
1499904290.82,27958,19.38,73668.0,4.75,3.89,4.01,0,*7D
1499904292.03,27959,19.38,73670.8,4.75,3.89,4.07,0,*7A
1499904293.26,27960,19.38,73668.5,4.75,3.81,4.05,0,*7A
1499904294.49,27961,19.38,73672.8,4.75,3.81,4.05,0,*7B
1499904295.75,27962,19.38,73672.0,4.75,3.71,4.05,0,*77
1499904297.0,27963,19.38,73674.0,4.75,3.79,4.05,0,*7E
1499904298.26,27964,19.38,73670.5,4.75,3.71,4.05,0,*71
1499904299.52,27965,19.38,73672.0,4.75,3.67,4.05,0,*77
1499904300.78,27966,19.44,73674.8,4.75,3.71,4.05,0,*73
1499904302.03,27967,19.38,73674.8,4.75,3.71,4.01,0,*76
1499904303.26,27968,19.38,73674.0,4.75,3.71,3.93,0,*75
1499904304.52,27969,19.38,73678.3,4.75,3.67,4.01,0,*7F
1499904305.75,27970,19.38,73672.3,4.75,3.67,3.93,0,*7B
1499904306.98,27971,19.38,73670.0,4.75,3.49,3.89,0,*7D
1499904308.24,27972,19.38,73666.8,4.75,3.67,4.01,0,*75
1499904309.41,27973,19.38,73664.0,4.73,3.55,3.93,0,*7F
1499904310.61,27974,19.38,73666.0,4.75,3.55,3.93,0,*7E
1499904311.87,27975,19.38,73666.0,4.75,3.67,4.01,0,*72
1499904313.1,27976,19.38,73666.8,4.75,3.67,3.93,0,*7D
1499904314.31,27977,19.38,73664.5,4.75,3.59,3.93,0,*71
1499904315.53,27978,19.38,73664.5,4.75,3.59,4.01,0,*72
1499904316.73,27979,19.38,73668.8,4.75,3.55,3.93,0,*73
1499904317.99,27980,19.38,73672.8,4.75,3.67,4.01,0,*78
1499904319.19,27981,19.38,73670.8,4.75,3.59,3.93,0,*78
1499904320.44,27982,19.38,73672.8,4.75,3.49,4.01,0,*76
1499904321.66,27983,19.38,73670.3,4.77,3.49,4.01,0,*75
1499904322.88,27984,19.38,73672.0,4.75,3.55,4.01,0,*7D
1499904324.13,27985,19.38,73666.8,4.75,3.37,4.01,0,*78
1499904325.38,27986,19.38,73670.0,4.75,3.37,4.01,0,*7B
1499904326.61,27987,19.38,73666.0,4.73,3.37,4.01,0,*7C
1499904327.83,27988,19.38,73664.8,4.73,3.37,4.01,0,*73
1499904329.08,27989,19.38,73664.3,4.75,3.23,4.01,0,*71
1499904330.28,27990,19.38,73672.0,4.73,3.19,3.89,0,*71
1499904331.46,27991,19.38,73668.5,4.73,2.95,3.81,0,*7D
1499904332.67,27992,19.38,73664.5,4.73,3.11,3.81,0,*73
1499904333.9,27993,19.44,73664.0,4.73,3.07,3.71,0,*7A
1499904335.12,27994,19.38,73664.5,4.73,3.19,3.79,0,*7A
1499904336.33,27995,19.38,73658.3,4.73,3.23,3.81,0,*75
1499904337.53,27996,19.38,73648.3,4.73,3.33,3.81,0,*77
1499904338.75,27997,19.38,73652.5,4.73,3.33,3.79,0,*71
1499904339.96,27998,19.38,73658.5,4.73,3.37,3.81,0,*7D
1499904341.18,27999,19.38,73658.0,4.73,3.37,3.71,0,*73
1499904342.41,28000,19.38,73660.0,4.73,3.37,3.71,0,*75
1499904343.61,28001,19.38,73656.0,4.73,3.37,3.59,0,*7E
1499904344.86,28002,19.38,73658.0,4.75,3.33,3.67,0,*72
1499904346.06,28003,19.38,73662.3,4.73,3.49,3.89,0,*78
1499904347.27,28004,19.38,73660.8,4.73,3.67,3.89,0,*73
1499904348.5,28005,19.38,73658.3,4.73,3.67,4.01,0,*75
1499904349.72,28006,19.38,73668.5,4.73,3.67,4.01,0,*76
1499904350.9,28007,19.38,73672.8,4.73,3.59,3.93,0,*76
1499904352.1,28008,19.38,73676.5,4.73,3.49,3.89,0,*73
1499904353.31,28009,19.38,73676.3,4.73,3.37,3.81,0,*73
1499904354.49,28010,19.38,73668.8,4.73,3.25,3.81,0,*78
1499904355.7,28011,19.38,73660.3,4.73,3.11,3.89,0,*76
1499904356.87,28012,19.38,73666.3,4.73,2.95,3.81,0,*70
1499904358.07,28013,19.38,73680.5,4.73,2.73,3.81,0,*79
1499904359.3,28014,19.38,73654.5,4.73,2.51,3.49,0,*7A
1499904360.52,28015,19.38,73608.8,4.73,1.89,3.19,0,*78
1499904361.72,28016,19.38,73608.8,4.73,1.83,3.11,0,*79
1499904362.92,28017,19.38,73612.8,4.73,1.83,3.19,0,*70
1499904364.14,28018,19.38,73620.8,4.73,1.71,3.19,0,*72
1499904365.37,28019,19.38,73628.8,4.69,1.63,3.07,0,*74
1499904366.62,28020,19.44,73620.8,4.67,1.59,3.15,0,*7A
1499904367.85,28021,19.38,73592.3,4.69,1.63,3.19,0,*70
1499904369.11,28022,19.38,73576.5,4.67,1.55,3.15,0,*74
1499904370.36,28023,19.38,73590.8,4.67,1.43,3.11,0,*76
1499904371.62,28024,19.38,73598.5,4.67,1.47,3.15,0,*71
1499904372.85,28025,19.38,73608.3,4.67,1.55,3.25,0,*70
1499904374.05,28026,19.38,73604.5,4.65,1.55,3.25,0,*71
1499904375.26,28027,19.38,73612.3,4.65,1.55,3.25,0,*70
1499904376.49,28028,19.38,73614.0,4.65,1.71,3.49,0,*73
1499904377.71,28029,19.38,73604.5,4.65,1.71,3.37,0,*7B
1499904378.91,28030,19.38,73608.8,4.65,1.79,3.49,0,*72
1499904380.11,28031,19.38,73614.8,4.65,1.89,3.59,0,*7D
1499904381.33,28032,19.38,73628.5,4.63,1.93,3.55,0,*7F
1499904382.53,28033,19.38,73622.5,4.65,2.05,3.55,0,*74
1499904383.73,28034,19.38,73624.0,4.65,2.05,3.59,0,*7F
1499904384.95,28035,19.38,73632.0,4.63,2.25,3.55,0,*76
1499904386.15,28036,19.38,73632.8,4.63,2.35,3.59,0,*78
1499904387.35,28037,19.44,73628.5,4.65,2.43,3.59,0,*7E
1499904388.55,28038,19.38,73628.3,4.65,2.55,3.55,0,*7A
1499904389.77,28039,19.38,73636.8,4.65,2.77,3.67,0,*7A
1499904390.99,28040,19.38,73636.0,4.65,2.77,3.49,0,*78
1499904392.19,28041,19.38,73630.5,4.65,2.77,3.55,0,*74
1499904393.39,28042,19.38,73626.3,4.63,2.99,3.55,0,*71
1499904394.59,28043,19.38,73626.3,4.65,2.95,3.45,0,*7B
1499904395.79,28044,19.38,73632.5,4.65,3.23,3.55,0,*71
1499904396.98,28045,19.38,73640.0,4.65,3.33,3.59,0,*7D
1499904398.18,28046,19.38,73630.5,4.65,3.33,3.59,0,*7E
1499904399.37,28047,19.38,73632.0,4.65,3.37,3.59,0,*7B
1499904400.59,28048,19.38,73630.0,4.65,3.45,3.67,0,*7C
1499904401.79,28049,19.38,73632.5,4.65,3.55,3.71,0,*7B
1499904402.98,28050,19.38,73632.5,4.65,3.55,3.79,0,*7B
1499904404.24,28051,19.38,73642.0,4.63,3.67,3.79,0,*7D
1499904405.41,28052,19.38,73642.3,4.65,3.59,3.81,0,*72
1499904406.58,28053,19.38,73638.5,4.65,3.55,3.55,0,*76
1499904407.83,28054,19.38,73634.5,4.63,3.49,3.67,0,*7B
1499904409.06,28055,19.38,73632.8,4.65,3.67,3.79,0,*7F
1499904410.29,28056,19.38,73634.0,4.65,3.67,3.71,0,*74
1499904411.49,28057,19.38,73624.8,4.65,3.79,3.81,0,*75
1499904412.72,28058,19.38,73646.3,4.65,3.71,3.79,0,*75
1499904413.97,28059,19.38,73650.3,4.63,3.79,3.79,0,*7A
1499904415.2,28060,19.38,73648.5,4.65,3.79,3.71,0,*7E
1499904416.43,28061,19.38,73658.8,4.65,3.79,3.71,0,*7F
1499904417.63,28062,19.38,73648.5,4.65,3.81,3.71,0,*7B
1499904418.85,28063,19.38,73648.5,4.65,3.79,3.71,0,*7D
1499904420.08,28064,19.38,73644.0,4.65,3.71,3.79,0,*7A
1499904421.31,28065,19.38,73646.8,4.65,3.79,3.71,0,*7B
1499904422.51,28066,19.38,73652.8,4.65,3.79,3.81,0,*77
1499904423.69,28067,19.38,73648.5,4.65,3.89,3.81,0,*79
1499904424.91,28068,19.38,73654.8,4.65,3.71,3.79,0,*76
1499904426.15,28069,19.38,73658.8,4.67,3.71,3.81,0,*72
1499904427.4,28070,19.38,73666.0,4.67,3.71,3.79,0,*7D
1499904428.64,28071,19.38,73660.3,4.67,3.75,3.81,0,*7F
1499904429.87,28072,19.38,73666.8,4.67,3.71,3.81,0,*78
1499904431.11,28073,19.38,73670.8,4.67,3.75,3.81,0,*7D
1499904432.34,28074,19.38,73674.8,4.67,3.63,3.75,0,*76
1499904433.53,28075,19.38,73670.5,4.65,3.37,3.59,0,*7A
1499904434.72,28076,19.38,73662.5,4.65,3.55,3.67,0,*70
1499904435.95,28077,19.38,73644.8,4.65,3.37,3.49,0,*79
1499904437.17,28078,19.38,73634.0,4.65,3.37,3.49,0,*76
1499904438.4,28079,19.38,73624.5,4.67,3.49,3.59,0,*7D
1499904439.57,28080,19.38,73632.3,4.65,3.55,3.59,0,*74
1499904440.8,28081,19.38,73646.0,4.67,3.75,3.81,0,*70
1499904442.03,28082,19.38,73650.8,4.67,3.71,3.81,0,*77
1499904443.27,28083,19.38,73656.8,4.67,3.75,3.81,0,*72
1499904444.48,28084,19.38,73660.8,4.67,3.85,3.81,0,*7A
1499904445.68,28085,19.38,73660.0,4.65,3.81,3.71,0,*72
1499904446.88,28086,19.38,73668.3,4.65,3.71,3.59,0,*74
1499904448.14,28087,19.38,73668.0,4.63,3.67,3.71,0,*7E
1499904449.36,28088,19.38,73664.5,4.65,3.79,3.79,0,*70
1499904450.59,28089,19.38,73668.5,4.65,3.67,3.71,0,*76
1499904451.82,28090,19.38,73660.3,4.65,3.67,3.71,0,*7E
1499904453.03,28091,19.38,73650.3,4.67,3.63,3.81,0,*76
1499904454.25,28092,19.38,73648.5,4.67,3.41,3.85,0,*71
1499904455.46,28093,19.38,73638.8,4.67,3.25,3.81,0,*76
1499904456.69,28094,19.38,73638.3,4.69,3.15,3.79,0,*7B
1499904457.92,28095,19.38,73650.5,4.67,2.99,3.71,0,*79
1499904459.13,28096,19.38,73654.0,4.67,2.99,3.81,0,*75
1499904460.37,28097,19.38,73678.3,4.67,3.15,3.81,0,*71
1499904461.6,28098,19.38,73658.0,4.67,3.25,3.71,0,*72
1499904462.79,28099,19.38,73648.5,4.69,3.37,3.55,0,*78
1499904464.03,28100,19.38,73652.3,4.67,3.41,3.29,0,*7D
1499904465.23,28101,19.38,73668.0,4.67,3.59,3.29,0,*75
1499904466.49,28102,19.38,73682.8,4.67,3.75,3.37,0,*77
1499904467.74,28103,19.38,73668.8,4.67,3.71,3.37,0,*72
1499904468.94,28104,19.38,73660.8,4.69,3.55,3.33,0,*79
1499904470.18,28105,19.38,73668.3,4.69,3.41,3.33,0,*7D
1499904471.38,28106,19.38,73674.0,4.67,3.29,3.29,0,*75
1499904472.61,28107,19.38,73674.3,4.69,3.23,3.33,0,*7B
1499904473.85,28108,19.38,73682.8,4.67,3.11,3.25,0,*7C
1499904475.07,28109,19.38,73676.3,4.69,2.81,3.23,0,*7D
1499904476.32,28110,19.38,73678.8,4.67,2.55,3.19,0,*7B
1499904477.52,28111,19.38,73676.0,4.65,2.35,3.11,0,*76
1499904478.71,28112,19.38,73672.3,4.65,2.27,3.23,0,*77
1499904479.94,28113,19.38,73680.5,4.67,2.09,3.29,0,*72
1499904481.17,28114,19.38,73668.8,4.67,1.93,3.29,0,*75
1499904482.4,28115,19.38,73660.0,4.65,1.55,3.15,0,*73
1499904483.62,28116,19.38,73654.5,4.65,1.51,3.23,0,*71
1499904484.84,28117,19.38,73668.0,4.65,1.43,3.23,0,*73
1499904486.06,28118,19.38,73678.3,4.65,1.51,3.23,0,*7F
1499904487.3,28119,19.38,73680.3,4.63,1.33,3.25,0,*7A
1499904488.52,28120,19.38,73686.3,4.65,1.43,3.37,0,*72
1499904489.75,28121,19.38,73676.0,4.63,1.41,3.37,0,*77
1499904490.98,28122,19.38,73678.8,4.65,1.29,3.33,0,*78
1499904492.22,28123,19.38,73680.8,4.63,1.05,3.11,0,*71
1499904493.44,28124,19.38,73672.8,4.65,0.87,2.89,0,*4B
1499904494.69,28125,19.38,73666.0,4.63,0.59,2.77,0,*4E
1499904495.93,28126,19.38,73658.0,4.63,0.71,2.85,0,*4A
1499904497.15,28127,19.38,73642.3,4.63,0.71,2.95,0,*4A
1499904498.4,28128,19.38,73646.5,4.63,0.83,3.11,0,*45
1499904499.6,28129,19.38,73650.0,4.61,1.01,3.19,0,*75
1499904500.78,28130,19.38,73660.0,4.57,1.05,3.29,0,*7F
1499904501.99,28131,19.38,73670.8,4.61,1.05,3.23,0,*71
1499904503.21,28132,19.38,73670.0,4.61,0.95,3.03,0,*48
1499904504.44,28133,19.38,73664.0,4.61,0.79,2.73,0,*4D
1499904505.66,28134,19.38,73664.0,4.57,0.83,2.73,0,*4A
1499904506.88,28135,19.38,73648.0,4.61,1.01,2.81,0,*78
1499904508.08,28136,19.38,73648.0,4.57,1.01,2.81,0,*7E
1499904509.29,28137,19.38,73668.8,4.57,1.05,2.81,0,*7B
1499904510.49,28138,19.38,73652.5,4.57,1.05,2.85,0,*70
1499904511.73,28139,19.38,73642.5,4.57,1.17,2.81,0,*76
1499904512.96,28140,19.38,73642.0,4.61,1.17,2.73,0,*70
1499904514.21,28141,19.38,73656.0,4.55,1.47,3.07,0,*71
1499904515.47,28142,19.38,73656.8,4.55,1.47,3.15,0,*71
1499904516.73,28143,19.38,73658.3,4.55,1.37,3.15,0,*77
1499904518.0,28144,19.38,73654.3,4.55,1.33,3.15,0,*74
1499904519.25,28145,19.38,73646.0,4.55,1.25,3.07,0,*71
1499904520.51,28146,19.38,73638.8,4.55,1.25,3.15,0,*71
1499904521.78,28147,19.38,73640.0,4.55,1.37,3.15,0,*73
1499904523.04,28148,19.38,73640.5,4.55,1.37,3.15,0,*7C
1499904524.27,28149,19.38,73650.8,4.53,1.43,3.11,0,*7C
1499904525.47,28150,19.38,73650.5,4.53,1.67,3.25,0,*75
1499904526.7,28151,19.38,73654.5,4.53,1.67,3.15,0,*77
1499904527.9,28152,19.38,73656.0,4.53,1.79,3.23,0,*7E
1499904529.13,28153,19.38,73644.5,4.53,1.93,3.33,0,*7A
1499904530.37,28154,19.38,73640.5,4.53,2.05,3.33,0,*71